{"data":{"norad_id":53935,"epoch":"2026-05-25T04:00:03.998880Z","epoch_age_seconds":56768,"freshness":"FRESH","line1":"1 53935U 22119BB  26145.16671295  .00538698  00000+0  45349-2 0  9990","line2":"2 53935  53.2166 289.5637 0000879  48.7445 224.9567 15.67652422  5848","mean_motion":15.67652422,"eccentricity":8.79e-5,"inclination_deg":53.2166,"raan_deg":289.5637,"arg_perigee_deg":48.7445,"mean_anomaly_deg":224.9567,"bstar":0.0045349,"rev_number":584,"period_min":91.85709662368,"perigee_km":365.0284138808,"apogee_km":366.21396657064,"semimajor_km":6743.7581902257,"source":"CELESTRAK","updated_at":"2026-05-25T13:38:17.616343Z"}}